Simultaneous Nadir Overpasses (SNOs) Predictions

Prediction of SNOs between LANDSAT-8 and NOAA-19 Satellite Orbit:

Table of predicted SNOs for the next 14.0 days since TLE Epoch: 9/25/2015
Index Date (LANDSAT-8) Time (LANDSAT-8) Lat,Lon (LANDSAT-8) SZA (LANDSAT-8 ) Date (NOAA-19) Time (NOAA-19) Lat,Lon (NOAA-19) SZA (NOAA-19 ) Distance(km) Time Diff (sec)
1 09/27/2015 13:01:56 -73.67, 166.97 104.73 09/27/2015 13:01:00 -73.66, 166.96 104.75 1.80 56
2 09/27/2015 13:51:23 73.59, -25.56 75.20 09/27/2015 13:52:02 73.58, -25.62 75.20 2.06 39
3 09/29/2015 18:35:40 73.64, -96.53 76.11 09/29/2015 18:35:20 73.66, -96.59 76.13 3.19 20
4 09/29/2015 19:25:09 -73.57, 70.96 103.95 09/29/2015 19:26:16 -73.54, 70.95 103.97 3.34 67
5 10/01/2015 23:19:54 73.84,-167.17 77.18 10/01/2015 23:18:42 73.94,-168.07 77.25 30.16 72
6 10/02/2015 00:09:26 -73.62, -0.01 103.05 10/02/2015 00:09:33 -73.61, 0.02 103.06 1.86 7
7 10/04/2015 04:53:43 -73.66, -71.00 102.15 10/04/2015 04:52:50 -73.67, -70.92 102.14 3.04 53
8 10/04/2015 05:43:10 73.57, 96.45 77.77 10/04/2015 05:43:53 73.57, 96.56 77.79 3.39 43
9 10/06/2015 10:27:26 73.65, 25.56 78.71 10/06/2015 10:27:11 73.67, 25.54 78.73 2.56 15
10 10/06/2015 11:16:55 -73.59,-166.93 101.35 10/06/2015 11:18:06 -73.58,-166.96 101.35 2.06 71
11 10/08/2015 15:11:42 73.73, -45.34 79.64 10/08/2015 15:10:29 73.78, -45.50 79.68 7.55 73
12 10/08/2015 16:01:11 -73.67, 122.17 100.42 10/08/2015 16:01:23 -73.65, 122.07 100.44 3.56 12
